Terminal Aerodrome Forecast
Issued by NWS Salt Lake City, UT

Home | Current Version | Previous Version | Text Only | Print | Product List | Glossary On
Versions: 1 2 3 4 5 6 7 8 9 10 11 12 13 14 15 16 17 18 19 20 21 22 23 24 25 26 27 28 29 30 31 32 33 34 35 36 37 38 39
000
FTUS45 KSLC 020541
TAFCDC
TAF
KCDC 020541Z 0206/0306 VRB04KT 1SM -SN BR OVC010
      TEMPO 0206/0210 3/4SM -SN BR VV005
     FM021500 21010KT 3SM -SN BR BKN010 OVC020
     FM021800 21010KT P6SM VCSH SCT010 BKN030=

USA.gov is the U.S. government's official web portal to all federal, state and local government web resources and services.